Weather History for Jackson, WY

Change the Weather History Date:

Wednesday, November 21, 2012

  Actual Average Record
Temperature  
Mean Temperature 38 °F -  
Max Temperature 44 °F 33 °F 49 °F (1989)
Min Temperature 32 °F 10 °F -8 °F (1979)
Degree Days  
Heating Degree Days 26    
Moisture  
Dew Point 30 °F    
Average Humidity 76    
Maximum Humidity 93    
Minimum Humidity 49    
Precipitation  
Precipitation 0.02 in - - ()
Sea Level Pressure  
Sea Level Pressure 29.98 in    
Wind  
Wind Speed 8 mph (SSW)    
Max Wind Speed 23 mph    
Max Gust Speed 34 mph    
Visibility 10 miles    
Events Snow    
Averages and records for this station are not official NWS values.
T = Trace of Precipitation, MM = Missing Value Source: NWS Daily Summary

Daily Weather History Graph

Daily Weather History Graph

Search for Another Location

Airport:

Trip Planner

Search our weather history database for the weather conditions in past years. The results will help you decide how hot, cold, wet, or windy it might be!

Date:

Astronomy

Nov. 21, 2012 Rise Set
Actual Time 7:25 AM MST 4:52 PM MST
Civil Twilight 6:53 AM MST 5:23 PM MST
Nautical Twilight 6:18 AM MST 5:58 PM MST
Astronomical Twilight 5:44 AM MST 6:33 PM MST
Moon 1:20 PM MST (11/21) 12:36 AM MST (11/21)
Length of Visible Light 10h 30m
Length of Day
9h 27m
Waxing Gibbous, 62% of the Moon is Illuminated
Nov 21
Waxing Gibbous
Nov 28
Full
Dec 6
Last Quarter
Dec 13
New
Dec 19
First Quarter

Hourly Weather History & Observations

Time (MST) Temp. Windchill Dew Point Humidity Pressure Visibility Wind Dir Wind Speed Gust Speed Precip Events Conditions
12:15 AM 35.6 °F - 32.0 °F 87% 30.07 in 10.0 mi Calm Calm - N/A   Overcast
12:35 AM 35.6 °F - 33.8 °F 93% 30.06 in 10.0 mi Calm Calm - N/A   Overcast
12:55 AM 35.6 °F - 33.8 °F 93% 30.05 in 10.0 mi Calm Calm - N/A   Overcast
1:15 AM 37.4 °F 32.8 °F 33.8 °F 87% 30.03 in 10.0 mi South 5.8 mph - N/A   Overcast
1:35 AM 37.4 °F 30.3 °F 33.8 °F 87% 30.02 in 10.0 mi SSW 10.4 mph - N/A   Overcast
1:55 AM 37.4 °F 31.4 °F 33.8 °F 87% 30.02 in 10.0 mi SSW 8.1 mph - N/A   Mostly Cloudy
2:15 AM 39.2 °F 33.0 °F 33.8 °F 81% 30.02 in 10.0 mi SW 9.2 mph - N/A   Overcast
2:35 AM 39.2 °F 33.6 °F 33.8 °F 81% 30.02 in 10.0 mi SSW 8.1 mph - N/A   Overcast
2:55 AM 37.4 °F 32.8 °F 33.8 °F 87% 30.02 in 10.0 mi South 5.8 mph - N/A   Overcast
3:15 AM 37.4 °F 33.8 °F 33.8 °F 87% 30.01 in 10.0 mi SSE 4.6 mph - N/A   Overcast
3:35 AM 35.6 °F 29.9 °F 32.0 °F 87% 30.01 in 10.0 mi ESE 6.9 mph - N/A   Mostly Cloudy
3:55 AM 35.6 °F 29.9 °F 32.0 °F 87% 30.00 in 10.0 mi SSE 6.9 mph - N/A   Mostly Cloudy
4:15 AM 35.6 °F 32.8 °F 30.2 °F 81% 29.99 in 10.0 mi SSW 3.5 mph - N/A   Partly Cloudy
4:35 AM 35.6 °F 29.9 °F 30.2 °F 81% 29.98 in 10.0 mi South 6.9 mph - N/A   Scattered Clouds
4:55 AM 35.6 °F 32.8 °F 30.2 °F 81% 29.98 in 10.0 mi South 3.5 mph - N/A   Scattered Clouds
5:15 AM 35.6 °F 29.9 °F 30.2 °F 81% 29.97 in 10.0 mi SSW 6.9 mph - N/A   Mostly Cloudy
5:35 AM 37.4 °F 34.9 °F 30.2 °F 75% 29.97 in 10.0 mi West 3.5 mph - N/A   Scattered Clouds
5:55 AM 33.8 °F - 30.2 °F 87% 29.96 in 10.0 mi Calm Calm - N/A   Clear
6:15 AM 35.6 °F 29.2 °F 30.2 °F 81% 29.96 in 10.0 mi SW 8.1 mph - N/A   Clear
6:51 AM 37.4 °F 31.4 °F 30.2 °F 75% 29.96 in 10.0 mi SSW 8.1 mph - N/A   Scattered Clouds
7:51 AM 39.2 °F 33.0 °F 30.2 °F 70% 29.97 in 10.0 mi South 9.2 mph - N/A   Mostly Cloudy
8:52 AM 42.8 °F 37.5 °F 28.4 °F 57% 29.96 in 10.0 mi South 9.2 mph - N/A   Mostly Cloudy
9:55 AM 44.6 °F 37.2 °F 26.6 °F 49% 29.95 in 10.0 mi South 17.3 mph 25.3 mph N/A   Overcast
10:51 AM 44.6 °F 36.9 °F 26.6 °F 49% 29.95 in 10.0 mi South 18.4 mph 25.3 mph N/A   Overcast
11:52 AM 44.6 °F 37.2 °F 28.4 °F 53% 29.93 in 10.0 mi South 17.3 mph 25.3 mph N/A   Overcast
12:52 PM 44.6 °F 37.2 °F 33.8 °F 66% 29.92 in 10.0 mi South 17.3 mph 23.0 mph N/A   Overcast
1:50 PM 44.6 °F 36.1 °F 28.4 °F 53% 29.90 in 10.0 mi South 21.9 mph - N/A   Overcast
2:52 PM 42.8 °F 34.8 °F 32.0 °F 66% 29.90 in 10.0 mi SSW 17.3 mph 28.8 mph N/A   Overcast
3:54 PM 39.2 °F - 33.8 °F 81% 29.91 in 9.0 mi Calm Calm - N/A   Overcast
4:52 PM 37.4 °F 27.8 °F 33.8 °F 87% 29.94 in 8.0 mi South 17.3 mph 34.5 mph N/A   Overcast
5:51 PM 37.4 °F 27.8 °F 35.6 °F 93% 29.94 in 10.0 mi SE 17.3 mph - N/A   Overcast
6:52 PM 37.4 °F 29.8 °F 33.8 °F 87% 29.95 in 10.0 mi SW 11.5 mph 23.0 mph N/A   Overcast
7:51 PM 37.4 °F 27.8 °F 30.2 °F 75% 29.95 in 7.0 mi SW 17.3 mph 28.8 mph N/A Snow Snow
8:54 PM 35.6 °F 24.0 °F 28.4 °F 75% 29.97 in 8.0 mi SW 23.0 mph 33.4 mph N/A   Overcast
9:35 PM 33.8 °F 26.4 °F 30.2 °F 87% 30.00 in 10.0 mi SW 9.2 mph - N/A   Mostly Cloudy
9:55 PM 35.6 °F 25.5 °F 26.6 °F 70% 30.00 in 7.0 mi SW 17.3 mph 23.0 mph N/A   Overcast
10:15 PM 35.6 °F 24.8 °F 24.8 °F 65% 30.00 in 9.0 mi SW 19.6 mph 27.6 mph N/A   Overcast
10:35 PM 35.6 °F 24.2 °F 24.8 °F 65% 30.00 in 10.0 mi SW 21.9 mph 28.8 mph N/A   Overcast
10:55 PM 33.8 °F 22.8 °F 21.2 °F 60% 30.01 in 10.0 mi SW 18.4 mph 23.0 mph N/A   Mostly Cloudy
11:15 PM 33.8 °F 21.6 °F 19.4 °F 56% 30.01 in 10.0 mi WSW 23.0 mph 29.9 mph N/A   Mostly Cloudy
11:35 PM 32.0 °F 23.0 °F 21.2 °F 64% 30.04 in 10.0 mi SW 11.5 mph 24.2 mph N/A   Mostly Cloudy